,,Average (minimum and maximum) air absorbed dose rate (��Gy/h),,,,,,,,,,,,,,,,,,,,,,
,,Okama-town,,,,,,,,Futaba-town,,,,,,,,,Tomioka-town,,Naraha-town,,Hirono-town,
Date,Start   time,Ottozawa,,Mukaihata,,Ono,,Minamidai,,Yamada,,,Koriyama,,,Kamihatori,,,Shimokoriyama,,Shokan,,Futatsunuma,
,,Low dose,High Log1,Low dose,High Log1,Low dose,High Log1,Low dose,High Log1,Low dose,High Log1,High Log2,Low dose,High Log1,High Log2,Low dose,High Log1,High Log2,Low dose,High Log1,Low dose,High Log1,Low dose,High Log1
2011/3/12,0:00:00,0.038,0.069,0.040,0.069,0.042,0.074,0.038,0.069,0.044,0.074,,0.042,0.066,,0.040,0.066,,0.039,0.069,0.037,0.068,0.043,0.070
,0:02:00,0.040,0.069,0.036,0.069,0.041,0.073,0.038,0.069,0.045,0.073,,0.042,0.066,,0.039,0.066,,0.040,0.069,0.038,0.068,0.042,0.069
,0:04:00,0.041,0.069,0.040,0.069,0.042,0.074,0.038,0.069,0.044,0.073,,0.042,0.067,,0.040,0.066,,0.040,0.069,0.038,0.068,0.042,0.070
,0:06:00,0.039,0.070,0.038,0.070,0.042,0.074,0.038,0.069,0.044,0.073,,0.041,0.067,,0.039,0.067,,0.040,0.070,0.039,0.068,0.043,0.069
,0:08:00,0.039,0.069,0.040,0.071,0.041,0.074,0.039,0.069,0.045,0.073,,0.042,0.067,,0.040,0.068,,0.039,0.070,0.038,0.068,0.042,0.069
,0:10:00,0.039,0.069,0.040,0.070,0.041,0.073,0.039,0.069,0.044,0.073,,0.041,0.066,,0.041,0.067,,0.039,0.070,0.038,0.067,0.042,0.069
,0:12:00,0.039,0.069,0.038,0.070,0.041,0.074,0.039,0.070,0.044,0.073,,0.042,0.066,,0.040,0.068,,0.039,0.070,0.036,0.067,0.042,0.069
,0:14:00,0.038,0.069,0.038,0.070,0.040,0.073,0.038,0.070,0.045,0.073,,0.042,0.066,,0.041,0.068,,0.039,0.069,0.038,0.068,0.042,0.069
,0:16:00,0.040,0.069,0.040,0.070,0.043,0.073,0.038,0.070,0.042,0.073,,0.041,0.066,,0.040,0.067,,0.039,0.069,0.038,0.068,0.044,0.070
,0:18:00,0.039,0.069,0.039,0.071,0.042,0.074,0.039,0.069,0.043,0.074,,0.041,0.066,,0.040,0.067,,0.040,0.070,0.037,0.067,0.042,0.070
,0:20:00,0.040,0.069,0.039,0.071,0.043,0.074,0.038,0.068,0.044,0.073,,0.041,0.067,,0.039,0.067,,0.039,0.070,0.038,0.068,0.043,0.071
,0:22:00,0.041,0.068,0.039,0.070,0.042,0.073,0.038,0.069,0.043,0.073,,0.041,0.067,,0.040,0.067,,0.040,0.070,0.037,0.069,0.042,0.070
,0:24:00,0.038,0.068,0.039,0.070,0.041,0.073,0.038,0.068,0.043,0.073,,0.042,0.067,,0.039,0.067,,0.040,0.070,0.038,0.068,0.042,0.070
,0:26:00,0.038,0.068,0.038,0.070,0.041,0.074,0.039,0.068,0.044,0.074,,0.042,0.067,,0.039,0.069,,0.038,0.070,0.038,0.067,0.043,0.070
,0:28:00,0.040,0.069,0.039,0.070,0.042,0.074,0.039,0.068,0.044,0.073,,0.041,0.067,,0.039,0.068,,0.038,0.070,0.039,0.066,0.043,0.071
,0:30:00,0.040,0.068,0.039,0.069,0.042,0.074,0.038,0.068,0.045,0.073,,0.040,0.067,,0.040,0.067,,0.040,0.070,0.039,0.067,0.042,0.071
,0:32:00,0.038,0.069,0.038,0.069,0.041,0.074,0.040,0.068,0.043,0.074,,0.042,0.067,,0.040,0.067,,0.039,0.070,0.039,0.067,0.042,0.070
,0:34:00,0.039,0.069,0.038,0.069,0.042,0.073,0.040,0.067,0.044,0.075,,0.041,0.066,,0.040,0.067,,0.039,0.070,0.036,0.067,0.043,0.070
,0:36:00,0.039,0.069,0.038,0.070,0.042,0.073,0.040,0.068,0.044,0.074,,0.042,0.067,,0.041,0.067,,0.039,0.070,0.038,0.067,0.042,0.070
,0:38:00,0.040,0.069,0.039,0.070,0.042,0.073,0.039,0.068,0.043,0.074,,0.042,0.067,,0.039,0.067,,0.040,0.070,0.037,0.067,0.043,0.070
,0:40:00,0.039,0.068,0.039,0.070,0.041,0.073,0.038,0.068,0.045,0.073,,0.041,0.066,,0.039,0.067,,0.040,0.070,0.037,0.068,0.043,0.070
,0:42:00,0.039,0.069,0.039,0.070,0.041,0.073,0.039,0.069,0.046,0.073,,0.041,0.066,,0.040,0.067,,0.040,0.069,0.038,0.068,0.042,0.070
,0:44:00,0.039,0.069,0.039,0.070,0.041,0.072,0.039,0.069,0.044,0.073,,0.042,0.067,,0.040,0.066,,0.040,0.069,0.037,0.068,0.043,0.070
,0:46:00,0.040,0.069,0.038,0.070,0.041,0.073,0.038,0.070,0.046,0.073,,0.042,0.066,,0.040,0.066,,0.038,0.069,0.038,0.068,0.043,0.070
,0:48:00,0.040,0.069,0.038,0.070,0.042,0.073,0.038,0.070,0.045,0.074,,0.042,0.066,,0.039,0.066,,0.039,0.068,0.038,0.069,0.043,0.070
,0:50:00,0.039,0.070,0.039,0.070,0.042,0.073,0.038,0.069,0.046,0.074,,0.041,0.065,,0.039,0.066,,0.039,0.069,0.037,0.069,0.043,0.070
,0:52:00,0.039,0.070,0.039,0.071,0.042,0.073,0.039,0.069,0.047,0.074,,0.041,0.065,,0.040,0.067,,0.039,0.069,0.039,0.069,0.043,0.071
,0:54:00,0.039,0.070,0.038,0.070,0.042,0.073,0.040,0.069,0.046,0.074,,0.042,0.066,,0.040,0.067,,0.038,0.069,0.038,0.069,0.041,0.071
,0:56:00,0.038,0.070,0.039,0.070,0.041,0.073,0.039,0.068,0.047,0.074,,0.041,0.066,,0.039,0.066,,0.041,0.070,0.038,0.068,0.042,0.070
,0:58:00,0.039,0.070,0.038,0.070,0.042,0.073,0.039,0.068,0.045,0.074,,0.041,0.066,,0.041,0.066,,0.039,0.071,0.038,0.068,0.042,0.070
,1:00:00,0.039,0.069,0.039,0.070,0.041,0.073,0.039,0.068,0.046,0.074,,0.042,0.066,,0.041,0.066,,0.040,0.070,0.038,0.068,0.044,0.069
,1:02:00,0.038,0.070,0.038,0.070,0.041,0.073,0.039,0.068,0.045,0.074,,0.040,0.065,,0.042,0.066,,0.038,0.070,0.038,0.068,0.042,0.070
,1:04:00,0.039,0.071,0.039,0.070,0.041,0.073,0.040,0.068,0.046,0.074,,0.042,0.066,,0.040,0.066,,0.039,0.071,0.039,0.068,0.042,0.070
,1:06:00,0.039,0.070,0.040,0.070,0.043,0.072,0.038,0.069,0.045,0.074,,0.041,0.066,,0.039,0.067,,0.039,0.071,0.038,0.068,0.042,0.070
,1:08:00,0.040,0.070,0.039,0.070,0.042,0.073,0.040,0.068,0.045,0.074,,0.041,0.067,,0.040,0.067,,0.039,0.071,0.038,0.068,0.042,0.070
,1:10:00,0.039,0.069,0.038,0.069,0.042,0.073,0.038,0.069,0.043,0.074,,0.043,0.067,,0.041,0.067,,0.039,0.070,0.038,0.068,0.042,0.070
,1:12:00,0.039,0.069,0.039,0.069,0.042,0.073,0.038,0.069,0.045,0.074,,0.042,0.067,,0.040,0.068,,0.039,0.070,0.038,0.068,0.042,0.070
,1:14:00,0.039,0.069,0.039,0.070,0.043,0.073,0.039,0.069,0.045,0.075,,0.042,0.067,,0.042,0.067,,0.039,0.071,0.038,0.068,0.043,0.070
,1:16:00,0.039,0.069,0.039,0.070,0.041,0.073,0.039,0.069,0.044,0.074,,0.042,0.067,,0.040,0.067,,0.039,0.071,0.038,0.068,0.043,0.070
,1:18:00,0.039,0.069,0.040,0.069,0.042,0.073,0.041,0.069,0.045,0.074,,0.042,0.066,,0.040,0.067,,0.039,0.071,0.037,0.068,0.042,0.070
,1:20:00,0.039,0.069,0.039,0.069,0.041,0.073,0.038,0.069,0.044,0.075,,0.041,0.066,,0.040,0.067,,0.039,0.069,0.039,0.068,0.043,0.069
,1:22:00,0.039,0.069,0.039,0.070,0.042,0.074,0.038,0.069,0.046,0.075,,0.042,0.066,,0.041,0.067,,0.040,0.069,0.038,0.068,0.043,0.070
,1:24:00,0.039,0.069,0.039,0.070,0.042,0.074,0.039,0.068,0.046,0.075,,0.042,0.066,,0.041,0.067,,0.039,0.069,0.038,0.068,0.042,0.070
,1:26:00,0.040,0.069,0.040,0.070,0.041,0.074,0.039,0.068,0.045,0.075,,0.041,0.067,,0.040,0.068,,0.040,0.069,0.038,0.069,0.043,0.070
,1:28:00,0.039,0.069,0.038,0.070,0.040,0.074,0.039,0.069,0.045,0.075,,0.042,0.066,,0.042,0.067,,0.040,0.069,0.037,0.069,0.043,0.071
,1:30:00,0.039,0.069,0.040,0.070,0.043,0.074,0.039,0.069,0.046,0.075,,0.042,0.066,,0.039,0.067,,0.038,0.070,0.039,0.068,0.044,0.070
,1:32:00,0.039,0.069,0.040,0.070,0.042,0.074,0.039,0.068,0.047,0.075,,0.042,0.066,,0.039,0.067,,0.039,0.069,0.038,0.068,0.043,0.070
,1:34:00,0.040,0.069,0.039,0.070,0.041,0.073,0.039,0.068,0.046,0.075,,0.041,0.066,,0.040,0.067,,0.040,0.069,0.038,0.068,0.043,0.070
,1:36:00,0.039,0.069,0.039,0.070,0.042,0.073,0.040,0.067,0.044,0.075,,0.042,0.066,,0.040,0.067,,0.040,0.068,0.038,0.068,0.044,0.070
,1:38:00,0.039,0.069,0.039,0.070,0.041,0.072,0.039,0.067,0.045,0.075,,0.043,0.067,,0.041,0.067,,0.040,0.069,0.039,0.068,0.042,0.070
,1:40:00,0.039,0.069,0.040,0.070,0.042,0.073,0.040,0.067,0.045,0.075,,0.042,0.067,,0.040,0.068,,0.040,0.069,0.038,0.068,0.042,0.070
,1:42:00,0.040,0.070,0.040,0.070,0.042,0.073,0.039,0.066,0.045,0.074,,0.042,0.066,,0.041,0.068,,0.040,0.069,0.038,0.067,0.044,0.070
,1:44:00,0.040,0.070,0.040,0.071,0.041,0.074,0.039,0.067,0.046,0.074,,0.040,0.066,,0.040,0.067,,0.041,0.069,0.038,0.067,0.043,0.070
,1:46:00,0.039,0.070,0.038,0.070,0.042,0.074,0.039,0.067,0.045,0.075,,0.042,0.066,,0.039,0.068,,0.039,0.069,0.038,0.067,0.043,0.070
,1:48:00,0.041,0.069,0.039,0.070,0.042,0.073,0.037,0.068,0.047,0.074,,0.040,0.067,,0.040,0.067,,0.042,0.069,0.036,0.067,0.042,0.071
,1:50:00,0.041,0.069,0.040,0.070,0.043,0.073,0.039,0.068,0.047,0.073,,0.041,0.067,,0.041,0.067,,0.040,0.070,0.038,0.067,0.043,0.071
,1:52:00,0.040,0.069,0.039,0.070,0.042,0.073,0.038,0.068,0.045,0.074,,0.041,0.067,,0.040,0.067,,0.040,0.070,0.039,0.068,0.044,0.070
,1:54:00,0.040,0.069,0.040,0.070,0.042,0.073,0.040,0.068,0.045,0.075,,0.039,0.068,,0.041,0.067,,0.040,0.070,0.038,0.067,0.042,0.070
,1:56:00,0.041,0.069,0.039,0.069,0.041,0.073,0.039,0.068,0.046,0.075,,0.042,0.067,,0.041,0.067,,0.039,0.070,0.038,0.068,0.042,0.070
,1:58:00,0.040,0.069,0.038,0.069,0.042,0.073,0.040,0.068,0.046,0.074,,0.042,0.066,,0.040,0.067,,0.039,0.070,0.038,0.067,0.044,0.070
,2:00:00,0.039,0.070,0.039,0.070,0.042,0.073,0.039,0.068,0.046,0.074,,0.041,0.065,,0.040,0.068,,0.039,0.070,0.039,0.067,0.043,0.069
,2:02:00,0.039,0.070,0.039,0.070,0.041,0.073,0.040,0.069,0.046,0.075,,0.040,0.065,,0.042,0.068,,0.040,0.069,0.038,0.068,0.044,0.070
,2:04:00,0.040,0.069,0.039,0.070,0.042,0.073,0.039,0.069,0.046,0.075,,0.041,0.066,,0.040,0.067,,0.039,0.069,0.038,0.068,0.044,0.070
,2:06:00,0.039,0.069,0.038,0.071,0.041,0.073,0.038,0.068,0.045,0.076,,0.041,0.065,,0.039,0.067,,0.039,0.069,0.039,0.067,0.042,0.070
,2:08:00,0.039,0.069,0.038,0.071,0.041,0.073,0.041,0.068,0.046,0.075,,0.041,0.065,,0.039,0.067,,0.039,0.069,0.038,0.067,0.043,0.070
,2:10:00,0.039,0.070,0.039,0.070,0.042,0.072,0.038,0.068,0.047,0.074,,0.042,0.066,,0.041,0.067,,0.040,0.069,0.038,0.067,0.043,0.070
,2:12:00,0.038,0.069,0.040,0.070,0.042,0.072,0.039,0.068,0.045,0.074,,0.042,0.066,,0.040,0.067,,0.039,0.070,0.040,0.067,0.044,0.069
,2:14:00,0.039,0.069,0.039,0.071,0.041,0.073,0.039,0.068,0.045,0.074,,0.041,0.067,,0.040,0.066,,0.040,0.070,0.039,0.068,0.042,0.069
,2:16:00,0.040,0.069,0.039,0.071,0.042,0.073,0.038,0.068,0.046,0.073,,0.041,0.067,,0.039,0.067,,0.040,0.070,0.038,0.068,0.042,0.069
,2:18:00,0.040,0.069,0.039,0.070,0.041,0.073,0.039,0.068,0.046,0.073,,0.042,0.066,,0.040,0.067,,0.040,0.070,0.038,0.067,0.043,0.069
,2:20:00,0.039,0.069,0.039,0.070,0.040,0.073,0.039,0.069,0.045,0.073,,0.041,0.066,,0.039,0.066,,0.040,0.070,0.038,0.067,0.044,0.069
,2:22:00,0.038,0.069,0.040,0.070,0.041,0.072,0.039,0.069,0.046,0.073,,0.042,0.066,,0.040,0.066,,0.040,0.070,0.039,0.067,0.043,0.069
,2:24:00,0.038,0.070,0.040,0.070,0.041,0.072,0.039,0.069,0.046,0.073,,0.042,0.066,,0.040,0.066,,0.039,0.070,0.039,0.068,0.042,0.070
,2:26:00,0.039,0.071,0.039,0.070,0.041,0.072,0.040,0.068,0.044,0.073,,0.042,0.066,,0.040,0.066,,0.040,0.069,0.038,0.068,0.043,0.070
,2:28:00,0.040,0.070,0.038,0.070,0.042,0.073,0.041,0.068,0.045,0.074,,0.041,0.066,,0.040,0.066,,0.040,0.069,0.038,0.068,0.043,0.070
,2:30:00,0.040,0.070,0.039,0.069,0.042,0.074,0.037,0.068,0.046,0.075,,0.041,0.065,,0.040,0.066,,0.039,0.069,0.038,0.068,0.043,0.070
,2:32:00,0.040,0.070,0.040,0.070,0.041,0.073,0.039,0.068,0.046,0.075,,0.039,0.065,,0.040,0.066,,0.040,0.069,0.038,0.067,0.043,0.069
,2:34:00,0.037,0.070,0.039,0.069,0.042,0.073,0.038,0.068,0.045,0.075,,0.041,0.066,,0.040,0.067,,0.039,0.069,0.038,0.068,0.043,0.069
,2:36:00,0.039,0.070,0.041,0.069,0.042,0.073,0.039,0.068,0.045,0.075,,0.040,0.065,,0.040,0.067,,0.040,0.069,0.038,0.068,0.044,0.069
,2:38:00,0.040,0.070,0.039,0.070,0.040,0.073,0.039,0.068,0.046,0.075,,0.041,0.065,,0.040,0.067,,0.038,0.069,0.038,0.068,0.043,0.070
,2:40:00,0.040,0.070,0.040,0.070,0.042,0.073,0.039,0.068,0.045,0.075,,0.042,0.065,,0.041,0.068,,0.040,0.070,0.038,0.068,0.042,0.070
,2:42:00,0.038,0.070,0.039,0.070,0.041,0.073,0.039,0.068,0.045,0.074,,0.041,0.065,,0.041,0.068,,0.039,0.069,0.038,0.069,0.045,0.069
,2:44:00,0.038,0.069,0.039,0.070,0.041,0.072,0.038,0.068,0.044,0.074,,0.040,0.065,,0.040,0.068,,0.040,0.069,0.039,0.069,0.043,0.070
,2:46:00,0.040,0.069,0.040,0.070,0.042,0.072,0.039,0.068,0.046,0.074,,0.040,0.065,,0.040,0.068,,0.039,0.070,0.038,0.068,0.042,0.070
,2:48:00,0.040,0.069,0.039,0.070,0.044,0.073,0.039,0.068,0.045,0.074,,0.040,0.065,,0.040,0.067,,0.040,0.071,0.038,0.068,0.043,0.070
,2:50:00,0.038,0.069,0.040,0.070,0.041,0.073,0.038,0.068,0.046,0.074,,0.041,0.065,,0.041,0.067,,0.039,0.071,0.038,0.068,0.043,0.070
,2:52:00,0.037,0.069,0.040,0.069,0.041,0.073,0.039,0.069,0.045,0.074,,0.040,0.066,,0.039,0.067,,0.039,0.071,0.039,0.068,0.043,0.069
,2:54:00,0.039,0.069,0.038,0.069,0.042,0.073,0.038,0.069,0.045,0.074,,0.041,0.065,,0.040,0.067,,0.038,0.071,0.038,0.069,0.042,0.069
,2:56:00,0.038,0.069,0.039,0.068,0.041,0.073,0.039,0.069,0.044,0.074,,0.041,0.065,,0.040,0.067,,0.039,0.070,0.039,0.069,0.045,0.069
,2:58:00,0.040,0.069,0.040,0.069,0.042,0.073,0.039,0.068,0.045,0.074,,0.042,0.065,,0.040,0.067,,0.039,0.069,0.039,0.069,0.043,0.070
,3:00:00,0.040,0.069,0.039,0.069,0.042,0.073,0.040,0.068,0.046,0.074,,0.041,0.065,,0.040,0.067,,0.039,0.069,0.037,0.068,0.044,0.071
,3:02:00,0.040,0.069,0.038,0.069,0.041,0.073,0.039,0.068,0.045,0.074,,0.040,0.065,,0.040,0.067,,0.040,0.070,0.036,0.069,0.043,0.071
,3:04:00,0.039,0.069,0.039,0.069,0.041,0.073,0.038,0.068,0.044,0.074,,0.041,0.065,,0.040,0.067,,0.037,0.070,0.038,0.069,0.043,0.071
,3:06:00,0.039,0.069,0.038,0.070,0.041,0.073,0.039,0.068,0.045,0.074,,0.040,0.065,,0.040,0.067,,0.038,0.069,0.039,0.069,0.043,0.070
,3:08:00,0.039,0.068,0.038,0.070,0.041,0.072,0.036,0.068,0.048,0.074,,0.039,0.065,,0.041,0.067,,0.040,0.069,0.040,0.068,0.043,0.070
,3:10:00,0.040,0.069,0.039,0.070,0.042,0.073,0.038,0.068,0.045,0.074,,0.040,0.065,,0.040,0.067,,0.039,0.069,0.038,0.068,0.042,0.070
,3:12:00,0.039,0.069,0.039,0.070,0.042,0.073,0.038,0.068,0.045,0.074,,0.040,0.065,,0.039,0.067,,0.039,0.069,0.038,0.068,0.043,0.071
,3:14:00,0.038,0.069,0.039,0.070,0.042,0.073,0.039,0.068,0.045,0.074,,0.041,0.065,,0.040,0.067,,0.039,0.068,0.038,0.068,0.042,0.070
,3:16:00,0.039,0.069,0.038,0.070,0.041,0.073,0.040,0.068,0.046,0.074,,0.041,0.066,,0.040,0.067,,0.040,0.069,0.037,0.068,0.043,0.071
,3:18:00,0.041,0.069,0.038,0.070,0.042,0.073,0.040,0.067,0.046,0.074,,0.040,0.067,,0.041,0.067,,0.040,0.069,0.039,0.068,0.043,0.070
,3:20:00,0.040,0.070,0.040,0.070,0.041,0.073,0.039,0.067,0.045,0.074,,0.041,0.066,,0.039,0.066,,0.039,0.069,0.038,0.067,0.043,0.071
,3:22:00,0.039,0.070,0.038,0.070,0.041,0.073,0.039,0.067,0.045,0.074,,0.042,0.066,,0.040,0.066,,0.039,0.069,0.036,0.068,0.043,0.071
,3:24:00,0.040,0.069,0.039,0.070,0.040,0.073,0.039,0.067,0.045,0.074,,0.041,0.065,,0.039,0.066,,0.040,0.070,0.037,0.068,0.043,0.070
,3:26:00,0.041,0.070,0.039,0.069,0.041,0.073,0.039,0.068,0.046,0.073,,0.041,0.065,,0.040,0.067,,0.040,0.071,0.039,0.068,0.043,0.070
,3:28:00,0.039,0.070,0.040,0.069,0.041,0.073,0.039,0.068,0.046,0.074,,0.042,0.066,,0.041,0.067,,0.040,0.071,0.040,0.068,0.043,0.069
,3:30:00,0.038,0.070,0.041,0.069,0.042,0.073,0.039,0.068,0.045,0.074,,0.042,0.066,,0.040,0.067,,0.039,0.071,0.038,0.068,0.042,0.070
,3:32:00,0.038,0.069,0.038,0.069,0.042,0.074,0.038,0.067,0.046,0.074,,0.041,0.065,,0.039,0.067,,0.039,0.070,0.038,0.069,0.044,0.070
,3:34:00,0.039,0.069,0.039,0.070,0.043,0.073,0.038,0.068,0.046,0.074,,0.040,0.065,,0.039,0.067,,0.040,0.070,0.038,0.069,0.043,0.070
,3:36:00,0.040,0.068,0.039,0.070,0.041,0.073,0.038,0.068,0.046,0.074,,0.041,0.065,,0.039,0.066,,0.038,0.070,0.038,0.069,0.044,0.069
,3:38:00,0.039,0.068,0.039,0.071,0.041,0.073,0.039,0.069,0.045,0.074,,0.040,0.065,,0.041,0.066,,0.039,0.070,0.038,0.068,0.042,0.069
,3:40:00,0.041,0.068,0.039,0.071,0.040,0.074,0.039,0.069,0.046,0.073,,0.041,0.066,,0.042,0.066,,0.041,0.069,0.038,0.068,0.043,0.068
,3:42:00,0.040,0.068,0.039,0.070,0.042,0.073,0.038,0.069,0.045,0.073,,0.042,0.066,,0.041,0.066,,0.039,0.070,0.038,0.068,0.043,0.069
,3:44:00,0.039,0.068,0.038,0.071,0.042,0.073,0.039,0.068,0.045,0.073,,0.042,0.066,,0.039,0.066,,0.039,0.070,0.039,0.068,0.044,0.069
,3:46:00,0.039,0.068,0.040,0.071,0.041,0.073,0.038,0.068,0.046,0.073,,0.042,0.066,,0.039,0.066,,0.039,0.070,0.036,0.068,0.043,0.070
,3:48:00,0.039,0.069,0.040,0.070,0.042,0.073,0.039,0.068,0.045,0.073,,0.042,0.066,,0.041,0.067,,0.039,0.070,0.039,0.068,0.043,0.070
,3:50:00,0.038,0.069,0.040,0.070,0.043,0.073,0.039,0.068,0.048,0.073,,0.040,0.066,,0.041,0.067,,0.040,0.070,0.038,0.068,0.043,0.070
,3:52:00,0.040,0.069,0.040,0.070,0.042,0.073,0.039,0.068,0.047,0.073,,0.041,0.065,,0.040,0.067,,0.039,0.070,0.038,0.068,0.042,0.070
,3:54:00,0.040,0.069,0.040,0.070,0.041,0.073,0.038,0.068,0.046,0.073,,0.041,0.065,,0.040,0.067,,0.039,0.069,0.038,0.068,0.043,0.070
,3:56:00,0.039,0.069,0.040,0.070,0.040,0.073,0.039,0.069,0.044,0.073,,0.041,0.065,,0.040,0.067,,0.040,0.069,0.039,0.068,0.043,0.071
,3:58:00,0.040,0.069,0.037,0.070,0.044,0.074,0.039,0.069,0.046,0.073,,0.042,0.066,,0.039,0.067,,0.038,0.069,0.037,0.068,0.043,0.071
,4:00:00,0.041,0.069,0.039,0.069,0.041,0.074,0.040,0.068,0.046,0.073,,0.041,0.066,,0.039,0.066,,0.039,0.069,0.037,0.068,0.043,0.071
,4:02:00,0.041,0.069,0.039,0.069,0.042,0.073,0.040,0.070,0.046,0.074,,0.041,0.066,,0.041,0.066,,0.040,0.069,0.039,0.068,0.043,0.071
,4:04:00,0.041,0.069,0.039,0.070,0.042,0.073,0.040,0.070,0.046,0.074,,0.040,0.066,,0.040,0.066,,0.039,0.069,0.038,0.069,0.043,0.071
,4:06:00,0.040,0.069,0.039,0.070,0.042,0.073,0.039,0.070,0.046,0.075,,0.041,0.066,,0.040,0.066,,0.040,0.070,0.038,0.070,0.043,0.071
,4:08:00,0.041,0.069,0.039,0.070,0.041,0.072,0.039,0.069,0.044,0.074,,0.040,0.066,,0.040,0.066,,0.039,0.069,0.039,0.070,0.045,0.071
,4:10:00,0.042,0.070,0.040,0.070,0.041,0.072,0.039,0.069,0.046,0.074,,0.040,0.065,,0.039,0.066,,0.039,0.069,0.037,0.069,0.045,0.071
,4:12:00,0.041,0.070,0.040,0.070,0.041,0.072,0.039,0.069,0.047,0.074,,0.041,0.065,,0.041,0.066,,0.039,0.069,0.038,0.069,0.042,0.070
,4:14:00,0.041,0.071,0.040,0.069,0.041,0.073,0.039,0.069,0.045,0.074,,0.042,0.065,,0.040,0.067,,0.040,0.069,0.039,0.068,0.043,0.070
,4:16:00,0.041,0.071,0.040,0.069,0.043,0.073,0.038,0.069,0.046,0.074,,0.042,0.065,,0.039,0.068,,0.039,0.069,0.038,0.068,0.044,0.070
,4:18:00,0.041,0.071,0.040,0.070,0.041,0.073,0.039,0.069,0.045,0.074,,0.043,0.065,,0.040,0.067,,0.039,0.069,0.038,0.068,0.042,0.071
,4:20:00,0.042,0.072,0.040,0.070,0.041,0.073,0.039,0.068,0.046,0.075,,0.043,0.065,,0.040,0.067,,0.041,0.070,0.038,0.068,0.043,0.071
,4:22:00,0.043,0.072,0.040,0.069,0.042,0.073,0.039,0.068,0.045,0.075,,0.041,0.065,,0.039,0.067,,0.040,0.070,0.038,0.068,0.042,0.070
,4:24:00,0.042,0.072,0.040,0.070,0.042,0.073,0.039,0.069,0.046,0.075,,0.040,0.066,,0.040,0.066,,0.040,0.069,0.039,0.069,0.042,0.070
,4:26:00,0.044,0.071,0.038,0.069,0.043,0.073,0.038,0.068,0.045,0.075,,0.042,0.066,,0.040,0.066,,0.039,0.070,0.038,0.069,0.043,0.070
,4:28:00,0.043,0.071,0.039,0.070,0.043,0.072,0.039,0.068,0.045,0.075,,0.046,0.066,,0.040,0.066,,0.039,0.070,0.037,0.069,0.043,0.070
,4:30:00,0.043,0.071,0.040,0.069,0.042,0.073,0.039,0.069,0.046,0.075,,0.049,0.067,,0.041,0.066,,0.039,0.070,0.038,0.068,0.044,0.070
,4:32:00,0.042,0.072,0.040,0.070,0.043,0.074,0.039,0.069,0.045,0.075,,0.077,0.072,,0.042,0.066,,0.039,0.070,0.039,0.069,0.044,0.069
,4:34:00,0.042,0.071,0.039,0.069,0.043,0.073,0.040,0.069,0.046,0.075,,0.172,0.092,,0.041,0.067,,0.040,0.069,0.039,0.068,0.043,0.069
,4:36:00,0.044,0.071,0.040,0.069,0.041,0.073,0.040,0.068,0.046,0.074,,0.348,0.135,,0.041,0.067,,0.038,0.069,0.038,0.068,0.043,0.070
,4:38:00,0.043,0.071,0.039,0.070,0.043,0.073,0.039,0.069,0.047,0.074,,0.779,0.243,,0.039,0.067,,0.039,0.069,0.038,0.068,0.044,0.070
,4:40:00,0.044,0.071,0.039,0.070,0.043,0.072,0.039,0.068,0.046,0.074,,0.851,0.411,,0.041,0.068,,0.039,0.069,0.037,0.068,0.042,0.071
,4:42:00,0.043,0.073,0.040,0.071,0.042,0.073,0.039,0.069,0.045,0.074,,0.549,0.462,,0.041,0.067,,0.039,0.070,0.040,0.069,0.043,0.070
,4:44:00,0.044,0.073,0.039,0.071,0.041,0.073,0.041,0.068,0.046,0.074,,0.466,0.453,,0.041,0.067,,0.039,0.069,0.038,0.069,0.042,0.070
,4:46:00,0.044,0.073,0.040,0.070,0.042,0.073,0.039,0.069,0.046,0.074,,0.564,0.448,,0.039,0.067,,0.039,0.070,0.039,0.068,0.043,0.070
,4:48:00,0.044,0.073,0.039,0.070,0.041,0.073,0.039,0.070,0.046,0.075,,0.842,0.486,,0.040,0.067,,0.039,0.070,0.038,0.068,0.042,0.070
,4:50:00,0.044,0.074,0.039,0.070,0.043,0.073,0.039,0.069,0.046,0.075,,1.52,0.639,,0.041,0.067,,0.039,0.070,0.038,0.068,0.041,0.069
,4:52:00,0.046,0.074,0.039,0.069,0.042,0.073,0.040,0.069,0.047,0.074,,1.85,0.904,,0.040,0.066,,0.040,0.070,0.038,0.068,0.043,0.068
,4:54:00,0.048,0.075,0.039,0.070,0.042,0.073,0.040,0.069,0.047,0.075,,2.09,1.14,,0.040,0.066,,0.040,0.069,0.038,0.069,0.042,0.069
,4:56:00,0.054,0.076,0.039,0.070,0.041,0.073,0.040,0.069,0.047,0.075,,2.39,1.40,,0.040,0.066,,0.039,0.070,0.038,0.069,0.043,0.070
,4:58:00,0.066,0.080,0.040,0.069,0.041,0.072,0.041,0.069,0.048,0.075,,1.81,1.53,,0.041,0.066,,0.039,0.070,0.038,0.068,0.043,0.070
,5:00:00,0.081,0.086,0.040,0.070,0.043,0.073,0.041,0.069,0.047,0.075,,1.33,1.45,,0.041,0.067,,0.039,0.070,0.039,0.069,0.042,0.069
,5:02:00,0.083,0.093,0.040,0.069,0.042,0.074,0.041,0.069,0.047,0.075,,1.03,1.30,,0.042,0.068,,0.039,0.070,0.038,0.068,0.043,0.069
,5:04:00,0.093,0.098,0.039,0.070,0.043,0.075,0.041,0.070,0.046,0.075,,1.09,1.15,,0.040,0.067,,0.040,0.069,0.038,0.068,0.042,0.069
,5:06:00,0.130,0.108,0.038,0.070,0.041,0.074,0.045,0.070,0.048,0.075,,1.18,1.09,,0.041,0.067,,0.039,0.070,0.038,0.068,0.044,0.069
,5:08:00,0.159,0.124,0.040,0.070,0.041,0.074,0.050,0.071,0.047,0.075,,1.42,1.08,,0.046,0.068,,0.039,0.070,0.038,0.068,0.044,0.070
,5:10:00,0.170,0.141,0.039,0.070,0.043,0.074,0.061,0.075,0.049,0.075,,1.77,1.16,,0.045,0.070,,0.039,0.069,0.038,0.068,0.043,0.070
,5:12:00,0.193,0.156,0.039,0.070,0.042,0.073,0.064,0.080,0.063,0.077,,2.19,1.32,,0.047,0.071,,0.039,0.069,0.038,0.067,0.044,0.070
,5:14:00,0.221,0.175,0.040,0.069,0.042,0.073,0.055,0.083,0.084,0.084,,2.51,1.54,,0.047,0.072,,0.040,0.069,0.037,0.068,0.042,0.070
,5:16:00,0.234,0.192,0.040,0.070,0.042,0.073,0.050,0.082,0.085,0.091,,2.49,1.72,,0.050,0.072,,0.040,0.069,0.038,0.067,0.043,0.069
,5:18:00,0.256,0.208,0.039,0.070,0.041,0.074,0.049,0.080,0.071,0.093,,3.06,1.90,,0.047,0.073,,0.039,0.069,0.038,0.067,0.043,0.069
,5:20:00,0.293,0.228,0.039,0.070,0.042,0.075,0.053,0.080,0.062,0.093,,4.79,2.31,,0.045,0.073,,0.039,0.069,0.038,0.067,0.044,0.070
,5:22:00,0.334,0.252,0.038,0.070,0.041,0.074,0.058,0.081,0.051,0.089,,5.79,3.22,,0.047,0.073,,0.041,0.069,0.039,0.067,0.044,0.070
,5:24:00,0.349,0.276,0.040,0.071,0.041,0.074,0.061,0.083,0.047,0.084,,6.04,3.80,,0.073,0.076,,0.039,0.069,0.039,0.068,0.044,0.070
,5:26:00,0.390,0.300,0.041,0.070,0.041,0.074,0.065,0.085,0.045,0.081,,8.46,4.73,,0.126,0.090,,0.040,0.069,0.038,0.068,0.042,0.070
,5:28:00,0.495,0.336,0.040,0.071,0.042,0.074,0.070,0.088,0.045,0.079,,9.73,6.10,,0.166,0.113,,0.039,0.069,0.037,0.068,0.043,0.070
,5:30:00,0.560,0.388,0.041,0.071,0.043,0.074,0.067,0.090,0.047,0.078,,9.35,7.12,,0.176,0.136,,0.040,0.068,0.037,0.067,0.043,0.070
,5:32:00,0.538,0.427,0.041,0.072,0.042,0.074,0.064,0.090,0.046,0.077,,8.71,8.05,,0.170,0.151,,0.040,0.069,0.039,0.068,0.044,0.069
,5:34:00,0.455,0.437,0.040,0.072,0.042,0.073,0.061,0.090,0.045,0.075,,4.89,7.58,,0.105,0.150,,0.039,0.069,0.038,0.069,0.044,0.069
,5:36:00,0.394,0.423,0.040,0.072,0.041,0.073,0.061,0.090,0.046,0.075,,3.17,6.20,,0.064,0.133,,0.040,0.069,0.037,0.068,0.042,0.070
,5:38:00,0.324,0.396,0.039,0.072,0.043,0.074,0.061,0.088,0.046,0.074,,3.77,5.10,,0.054,0.116,,0.040,0.069,0.038,0.067,0.042,0.069
,5:40:00,0.258,0.358,0.040,0.072,0.042,0.073,0.063,0.088,0.047,0.075,,3.92,4.53,,0.047,0.102,,0.039,0.069,0.037,0.067,0.042,0.069
,5:42:00,0.217,0.318,0.040,0.071,0.042,0.073,0.055,0.086,0.046,0.074,,3.02,4.06,,0.049,0.093,,0.040,0.069,0.038,0.067,0.041,0.069
,5:44:00,0.192,0.282,0.039,0.070,0.043,0.073,0.054,0.084,0.046,0.074,,1.35,3.31,,0.047,0.086,,0.039,0.070,0.038,0.067,0.043,0.070
,5:46:00,0.194,0.254,0.039,0.071,0.043,0.072,0.058,0.083,0.045,0.074,,0.465,2.47,,0.044,0.081,,0.040,0.069,0.038,0.068,0.042,0.070
,5:48:00,0.215,0.240,0.041,0.071,0.042,0.072,0.067,0.084,0.046,0.074,,0.259,1.75,,0.044,0.078,,0.040,0.069,0.038,0.068,0.045,0.070
,5:50:00,0.274,0.240,0.041,0.070,0.042,0.072,0.079,0.088,0.045,0.074,,0.182,1.25,,0.041,0.075,,0.038,0.068,0.038,0.068,0.043,0.070